Theta_e
302 302 303 302 302 302 302 300 300 300 301 301 302 302 302 303 301 301 302 303 305 307 309 310 310 309 309 309 308 307 305 304 303 303 302 301 300 299 298 298 297 297
301 301 300 301 300 299 300 300 300 300 301 301 301 301 301 300 300 301 301 302 302 304 307 308 308 309 309 308 308 306 305 304 303 303 302 300 300 299 299 298 297 297
300 299 300 300 301 300 300 299 300 300 300 300 300 299 299 299 299 299 300 301 303 304 305 306 307 307 308 307 307 306 304 303 303 302 301 300 300 299 299 298 297 295
299 300 300 300 300 300 299 298 298 298 298 298 299 299 299 299 298 298 299 299 302 303 304 304 305 306 307 307 306 305 304 304 303 302 301 300 299 299 298 297 296 295
298 299 299 299 299 298 297 298 298 298 298 299 298 297 298 297 297 297 297 298 299 300 302 302 303 304 305 305 305 304 304 303 302 302 300 298 298 297 297 296 295 295
296 298 298 298 298 298 298 298 299 298 298 297 298 297 297 297 297 297 296 296 297 299 300 300 301 302 302 303 303 303 302 300 299 299 298 298 298 297 297 297 296 295
296 296 296 297 297 297 297 298 298 297 297 297 293 296 294 295 295 296 297 296 297 298 298 298 298 298 299 299 299 299 299 299 298 298 297 297 297 296 295 295 295 294
295 294 296 295 295 295 295 296 295 295 294 291 293 294 293 295 295 296 296 296 297 298 297 297 297 299 297 296 297 297 298 299 298 297 297 297 296 296 295 294 293 293
292 293 293 292 293 293 293 294 293 291 290 292 293 292 291 293 294 294 295 295 296 297 297 296 296 296 296 295 295 296 297 297 297 297 297 296 296 296 295 294 292 292
292 291 289 290 291 292 292 292 291 291 290 292 293 292 292 292 293 294 294 294 295 296 296 296 295 294 294 294 295 295 296 297 297 297 297 297 297 296 296 294 293 292
290 289 289 290 291 291 291 291 290 290 290 291 292 292 292 292 292 293 293 294 295 296 296 295 295 294 294 294 294 294 295 296 296 296 296 296 296 296 294 294 293 292
290 289 290 290 291 290 290 290 289 289 290 290 291 292 292 292 292 292 293 294 294 295 296 296 295 295 295 295 295 294 294 294 295 295 295 295 295 295 295 294 293 292
291 291 290 290 290 290 289 289 289 289 290 291 290 291 292 292 291 292 292 293 294 294 295 295 295 295 294 294 294 294 294 294 294 294 294 294 294 294 294 293 292 292
291 290 289 289 289 289 289 289 289 289 289 289 288 290 291 292 292 292 292 291 293 293 294 294 294 294 294 293 293 294 294 293 294 293 293 293 293 293 293 293 292 292
290 289 288 288 288 289 289 289 289 288 288 288 289 290 291 291 292 292 291 291 292 292 292 293 293 294 294 293 293 293 293 293 293 293 293 292 292 292 291 291 291 291
289 289 289 288 288 289 289 289 288 288 287 288 289 289 290 290 290 291 291 292 292 291 291 292 292 293 291 292 293 292 293 293 292 292 292 292 291 291 291 290 290 290
288 289 288 288 289 288 288 288 288 288 287 288 288 288 289 289 289 290 291 291 291 292 291 291 292 292 292 293 294 294 292 292 292 291 291 291 291 290 290 290 289 289
288 288 288 288 288 288 288 287 287 287 287 288 288 288 288 288 288 289 290 290 291 291 291 292 292 292 293 293 294 294 293 291 291 290 290 291 291 290 291 290 289 288
287 287 288 288 288 288 288 287 287 287 287 287 287 288 287 287 288 288 289 290 290 290 290 291 291 293 293 293 293 293 294 292 291 290 290 290 290 290 289 289 288 287
287 287 287 288 288 288 287 287 287 287 288 288 287 287 287 287 287 288 288 288 289 290 290 291 291 291 293 293 293 293 293 293 290 290 289 289 289 289 289 289 288 287
286 287 287 287 287 287 287 287 287 287 287 287 287 287 287 287 288 287 288 288 288 288 289 290 291 291 292 293 293 293 293 293 291 290 289 289 289 289 289 288 288 287
287 287 287 287 287 287 287 287 287 287 287 287 287 287 287 287 287 287 287 287 287 287 288 288 289 291 292 292 292 293 293 290 290 289 289 288 288 288 288 288 287 286
287 287 287 287 287 287 287 287 287 287 287 286 286 287 287 287 287 287 287 287 287 287 287 287 288 289 291 291 292 292 291 289 289 288 288 287 287 287 287 286 286 285
287 286 287 287 287 287 287 287 288 287 287 287 286 287 287 287 287 287 287 287 287 287 287 287 287 288 290 291 291 292 290 288 288 288 287 287 287 286 286 285 285 284
286 286 286 286 286 287 287 287 287 287 288 286 286 286 287 287 286 286 286 286 286 286 286 286 287 287 289 290 291 291 290 288 288 288 287 287 286 285 285 284 283 283
286 285 286 286 286 286 287 287 287 287 287 286 286 286 286 286 286 285 285 286 286 285 285 286 286 286 287 289 290 290 291 288 288 287 286 286 285 284 283 281 282 282
Wind_Speed
7 7 8 8 8 8 8 8 8 8 8 7 8 8 8 8 6 7 7 7 8 9 9 10 9 9 9 9 10 10 10 12 11 11 13 13 14 16 15 16 16 14
9 8 7 6 6 6 7 7 8 9 9 8 8 7 6 5 6 7 8 8 8 9 9 9 9 9 9 9 9 10 9 10 12 9 11 14 13 14 16 17 16 14
7 7 7 9 9 9 8 7 7 8 8 7 6 6 6 5 6 6 7 8 9 9 9 9 10 9 9 9 9 9 9 10 11 11 11 14 13 13 14 14 12 14
8 8 8 8 8 7 6 6 6 6 5 6 7 7 7 6 7 7 7 8 9 9 8 9 10 9 10 9 9 9 9 10 11 10 11 10 12 13 13 12 12 12
8 8 7 7 6 6 5 7 8 7 8 8 6 6 7 7 7 7 8 8 8 8 8 9 9 10 9 9 9 9 10 10 10 10 10 11 11 12 12 11 13 14
6 6 7 7 7 7 8 9 9 8 8 6 8 6 7 7 8 8 8 8 8 9 9 8 9 9 9 9 9 9 9 9 9 10 11 13 12 11 11 12 13 14
7 6 7 7 7 7 8 9 7 7 7 6 5 7 5 7 8 8 8 9 9 9 9 9 10 9 8 7 8 9 9 9 9 10 12 11 10 11 10 11 12 13
6 5 7 6 8 7 9 9 7 6 6 5 7 7 6 8 9 8 8 9 9 10 9 9 9 10 9 8 9 10 11 9 9 10 11 12 10 12 12 11 11 12
6 7 6 6 7 8 9 10 9 7 6 7 8 7 6 8 8 9 9 9 10 10 10 9 9 9 8 9 10 11 12 11 10 11 12 13 12 13 13 12 12 13
7 6 5 7 8 9 9 8 6 6 6 8 9 7 9 8 8 9 8 9 10 10 10 9 9 9 8 9 11 12 12 12 11 11 11 12 14 14 13 13 14 14
7 5 7 9 10 8 9 7 6 7 6 9 8 9 8 7 9 8 9 10 11 11 11 10 10 9 10 11 11 10 11 12 12 11 12 13 13 13 13 13 14 15
8 6 8 9 9 8 8 7 7 7 8 7 8 9 8 9 9 8 9 11 11 11 11 11 10 10 11 12 12 11 12 11 12 12 12 12 13 13 12 12 13 14
8 8 8 7 7 8 6 7 8 8 7 9 7 8 9 9 9 10 9 10 11 11 11 11 10 10 11 11 11 11 12 12 12 12 12 11 12 12 12 11 12 13
9 6 6 7 6 6 7 7 7 7 8 7 6 9 10 11 11 11 9 8 11 11 10 10 10 10 11 11 11 11 11 12 12 12 12 11 11 11 11 12 12 13
6 5 5 5 6 7 7 8 7 7 7 7 8 10 10 10 9 9 9 10 10 10 10 9 10 11 10 10 10 11 11 12 12 12 12 12 11 11 11 11 11 12
6 6 6 6 6 7 8 7 6 7 7 8 10 10 9 8 8 8 9 12 11 11 10 10 10 10 12 17 14 11 11 10 10 12 12 12 11 11 12 12 13 12
6 7 5 7 7 7 7 6 7 7 7 9 9 8 9 9 8 10 11 10 12 12 12 11 11 10 16 17 19 20 13 11 12 12 11 12 12 12 13 13 12 12
6 6 6 7 7 8 7 6 6 7 8 9 8 9 9 7 9 11 11 11 11 11 12 12 11 13 17 18 19 20 18 13 11 11 11 12 12 13 12 12 12 11
6 6 7 8 8 7 6 6 7 8 9 8 10 9 6 8 11 10 12 11 11 13 13 13 12 14 17 20 19 19 20 17 11 12 11 12 12 13 13 12 11 10
7 7 8 8 7 7 6 7 7 10 9 8 7 6 8 10 10 11 11 11 12 12 13 12 13 14 18 19 19 20 20 18 12 12 12 12 13 13 12 12 12 11
7 6 7 8 7 7 7 8 8 9 8 8 7 9 9 11 11 11 12 11 11 11 12 13 13 15 17 19 19 20 20 18 13 12 12 12 12 12 12 12 12 12
8 9 9 8 7 7 7 9 8 9 10 8 7 8 8 8 9 9 11 11 11 11 12 14 13 15 17 18 20 19 20 13 12 12 12 12 11 11 11 10 10 11
9 10 11 10 10 10 10 10 9 10 8 5 8 9 9 10 10 10 9 10 11 11 13 14 13 13 17 19 19 20 16 11 11 10 11 12 12 9 10 10 9 9
9 8 10 11 10 11 12 11 9 8 8 5 8 9 10 10 8 10 10 10 11 12 12 13 14 12 16 18 19 19 17 12 11 11 12 12 11 9 8 8 9 13
8 8 9 10 11 12 10 12 11 10 9 5 8 8 10 9 7 9 10 9 10 12 13 15 14 11 14 17 19 19 17 11 11 10 11 11 9 9 8 7 7 9
8 9 10 9 11 12 11 11 10 9 9 8 8 7 9 9 8 9 11 12 9 10 11 12 13 12 11 17 18 19 21 13 10 11 13 11 9 9 8 7 7 7
Wind_Direction
215 214 220 218 222 218 215 213 212 218 220 219 221 223 217 221 210 215 226 230 232 233 235 236 228 221 218 210 205 204 204 204 204 205 205 205 210 210 212 213 213 210
216 216 221 224 231 223 224 214 217 216 225 220 225 224 221 209 211 206 216 224 228 232 234 237 235 228 221 215 210 209 211 208 209 203 207 208 215 215 219 218 216 215
219 218 218 220 223 224 222 220 219 223 224 226 224 217 220 207 212 208 213 219 226 229 230 234 237 233 227 223 217 214 213 213 217 206 205 210 212 215 220 218 219 215
219 218 220 226 227 232 225 226 228 228 228 231 221 216 209 209 206 210 214 217 225 229 230 234 237 234 229 225 219 220 216 217 215 209 213 214 213 215 218 215 218 218
217 221 225 229 231 232 229 230 231 224 224 226 224 210 212 208 208 212 212 217 219 229 230 234 238 240 235 231 223 224 219 221 216 213 214 217 218 213 216 211 215 219
224 219 222 224 224 223 228 231 232 226 227 226 221 212 214 209 212 213 211 216 219 223 224 233 238 240 238 238 232 231 225 223 219 214 216 218 218 214 213 212 215 218
225 217 225 220 229 226 233 237 237 230 230 227 217 226 204 215 216 215 214 215 220 224 223 223 230 237 237 239 237 237 231 225 220 215 219 223 218 219 217 216 218 220
232 231 228 222 226 226 232 240 239 232 228 226 229 230 206 220 220 218 215 216 219 223 224 225 227 232 230 228 234 236 236 227 224 218 221 224 218 222 217 217 216 219
235 233 225 230 236 239 237 230 221 220 212 223 232 231 222 222 222 219 218 217 222 224 222 222 224 228 226 223 230 233 235 233 226 220 220 221 220 221 218 213 215 218
242 241 233 236 236 237 241 244 243 237 217 223 227 220 222 221 217 220 218 219 226 227 225 223 223 222 222 224 229 230 234 236 231 228 226 225 223 221 218 212 215 218
255 240 236 238 240 242 244 242 235 232 222 227 228 230 229 226 228 219 219 219 224 228 227 225 224 218 221 226 228 229 233 235 235 233 230 229 226 224 219 214 214 216
251 244 239 243 245 248 247 245 238 231 231 232 225 234 230 229 227 220 219 224 225 228 227 227 222 217 220 226 227 226 229 232 235 234 234 231 231 228 223 216 214 216
254 246 245 247 247 249 249 243 238 235 231 236 227 231 232 234 230 229 225 225 229 229 228 226 224 220 222 226 228 227 228 230 232 235 235 234 234 231 227 220 217 216
259 258 254 252 252 248 245 242 241 237 236 240 232 233 233 234 232 229 230 223 231 231 232 227 225 224 225 227 227 227 227 230 230 231 233 234 234 232 228 224 220 218
286 284 269 260 252 252 249 246 241 238 236 232 230 235 234 235 237 233 231 232 235 233 234 228 226 226 225 223 225 227 227 231 230 230 229 231 231 231 228 227 225 223
281 278 273 266 263 256 255 252 247 241 236 235 236 236 240 238 238 234 230 233 234 234 232 229 229 228 223 221 219 223 222 226 227 228 227 228 228 230 230 226 227 224
284 280 281 274 265 264 261 256 250 243 240 240 241 239 239 238 234 236 235 235 235 235 232 231 231 228 224 221 222 222 222 225 224 227 224 226 226 226 229 226 227 225
292 295 290 280 278 270 265 259 254 247 246 244 245 243 240 234 235 235 238 236 237 238 237 236 235 228 224 225 224 224 221 225 228 228 224 224 223 225 228 227 225 223
298 295 288 285 280 278 274 267 254 254 251 248 246 242 240 234 237 238 240 238 237 240 241 238 241 231 227 227 226 226 225 224 232 230 230 228 222 222 224 225 222 219
301 295 287 283 286 287 281 271 262 257 257 252 256 249 238 244 241 239 241 238 237 239 244 244 241 235 229 229 227 226 226 225 232 230 232 232 228 222 221 221 217 214
298 288 287 290 288 286 282 272 265 268 264 255 248 246 242 242 242 242 242 239 241 238 244 246 243 235 232 230 228 226 225 225 231 231 234 236 233 228 224 222 216 215
319 315 310 305 298 289 278 273 268 259 263 258 249 251 245 249 252 243 248 244 239 237 242 248 246 235 233 231 228 227 225 226 230 230 234 235 234 231 228 225 221 212
321 316 312 311 309 304 295 286 282 276 266 249 255 252 249 247 246 244 243 243 243 237 239 249 251 234 232 232 228 227 224 229 229 231 235 235 235 229 228 225 220 210
310 309 306 305 305 299 295 292 285 275 273 249 249 262 256 251 248 253 247 240 242 242 235 245 251 235 230 233 229 225 220 225 226 227 234 233 235 227 225 224 217 206
302 300 296 296 296 293 291 290 288 283 280 263 253 255 261 264 252 253 257 246 241 244 242 241 252 243 229 232 228 225 221 225 226 229 234 232 226 229 218 215 208 202
300 297 292 289 289 291 290 282 283 288 281 271 264 251 263 263 256 254 259 259 246 245 246 240 246 247 229 230 227 224 220 220 224 227 231 228 219 220 210 206 196 194